FW6687 Weather Reports


Display with metric or nautical units.
time (UTC)temp
F
wind
direction
speed
MPH
gust
MPH
rain 1hr
in
rain 24hr
in
rain mn
in
humidity
%
barometer
mb
20260507133030 67 121 9.0 13.0 0.00 0.00 0.00 71 1010.6
20260507131533 69 101 7.0 12.0 0.00 0.00 0.00 68 1010.6
20260507130028 70 114 9.0 15.0 0.00 0.00 0.00 64 1010.8
20260507124529 70 86 9.0 16.0 0.00 0.00 0.00 63 1010.8
20260507123038 70 60 8.0 12.0 0.00 0.00 0.00 63 1011.0
20260507121530 70 90 7.0 14.0 0.00 0.00 0.00 63 1011.1
20260507120040 69 113 7.0 13.0 0.00 0.00 0.00 64 1011.4
20260507114527 69 75 5.0 11.0 0.00 0.00 0.00 65 1011.2
20260507113039 69 120 6.0 12.0 0.00 0.00 0.00 65 1011.5
20260507111530 69 70 5.0 11.0 0.00 0.00 0.00 67 1011.6
20260507110031 69 88 7.0 14.0 0.00 0.00 0.00 67 1011.7
20260507104528 69 141 6.0 14.0 0.00 0.00 0.00 67 1011.8
20260507103027 70 70 6.0 12.0 0.00 0.00 0.00 67 1011.9
20260507101530 69 126 5.0 13.0 0.00 0.00 0.00 68 1011.8
20260507100036 69 66 9.0 13.0 0.00 0.00 0.00 67 1012.1
20260507094528 69 113 7.0 12.0 0.00 0.00 0.00 67 1011.8
20260507093030 69 75 8.0 14.0 0.00 0.00 0.00 67 1012.1
20260507091527 68 86 6.0 15.0 0.00 0.00 0.00 68 1012.0
20260507090029 68 109 6.0 14.0 0.00 0.00 0.00 69 1012.1
20260507084528 68 89 6.0 15.0 0.00 0.00 0.00 69 1012.2
20260507083028 68 77 7.0 11.0 0.00 0.00 0.00 68 1012.2
20260507081533 67 98 6.0 11.0 0.00 0.00 0.00 70 1012.0
20260507080030 67 79 5.0 11.0 0.00 0.00 0.00 70 1012.0
20260507074533 67 120 6.0 11.0 0.00 0.00 0.00 70 1012.0
20260507073030 67 109 3.0 10.0 0.00 0.00 0.00 70 1011.8
20260507071534 66 270 1.0 3.0 0.00 0.00 0.00 72 1011.6
20260507070033 64 51 0.0 2.0 0.00 0.00 0.00 73 1011.5
20260507064540 63 0 0.0 0.0 0.00 0.00 0.00 76 1011.5
20260507063030 62 0 0.0 1.0 0.00 0.00 0.00 78 1011.5
20260507061533 61 282 0.0 1.0 0.00 0.00 0.00 80 1011.5
20260507060028 59 247 0.0 2.0 0.00 0.00 0.00 82 1011.4
20260507054528 60 276 0.0 3.0 0.00 0.00 0.00 81 1011.4
20260507053034 60 310 1.0 3.0 0.00 0.00 0.00 80 1011.5
20260507051528 59 269 0.0 3.0 0.00 0.00 0.00 81 1011.4
20260507050032 59 273 2.0 4.0 0.00 0.00 0.00 81 1011.3
20260507044529 59 266 1.0 4.0 0.00 0.00 0.00 83 1011.2
20260507043031 58 268 2.0 4.0 0.00 0.00 0.00 85 1011.2
20260507041541 58 256 1.0 4.0 0.00 0.00 0.00 84 1011.1
20260507040030 58 269 1.0 3.0 0.00 0.00 0.00 84 1011.1
20260507034540 58 309 1.0 3.0 0.00 0.00 0.00 83 1011.1
20260507033030 60 288 0.0 1.0 0.00 0.00 0.00 82 1011.0
20260507031528 60 0 0.0 1.0 0.00 0.00 0.00 81 1011.0
20260507030029 60 0 0.0 1.0 0.00 0.00 0.00 81 1011.1
20260507024532 61 0 0.0 1.0 0.00 0.00 0.00 80 1011.0
20260507023031 61 0 0.0 2.0 0.00 0.00 0.00 80 1011.1
20260507021530 61 119 0.0 1.0 0.00 0.00 0.00 79 1011.2
20260507020032 61 0 0.0 0.0 0.00 0.00 0.00 80 1011.5
20260507014528 61 0 0.0 0.0 0.00 0.00 0.00 81 1011.4
20260507013033 61 275 0.0 2.0 0.00 0.00 0.00 81 1011.6
20260507011534 62 310 0.0 2.0 0.00 0.00 0.00 81 1011.5
20260507010037 62 0 0.0 1.0 0.00 0.00 0.00 80 1011.4
20260507004530 62 73 0.0 1.0 0.00 0.00 0.00 80 1011.5
20260507003027 62 0 0.0 1.0 0.00 0.00 0.00 81 1011.6
20260507001533 62 0 0.0 1.0 0.00 0.00 0.00 81 1011.7
20260507000030 62 0 0.0 0.0 0.00 0.00 0.00 81 1011.9
20260506234544 62 0 0.0 0.0 0.00 0.00 0.00 81 1012.0
20260506233030 62 0 0.0 1.0 0.00 0.00 0.00 81 1012.1
20260506231529 63 0 0.0 1.0 0.00 0.00 0.00 81 1012.1
20260506230029 63 0 0.0 0.0 0.00 0.00 0.00 81 1012.0
20260506224530 63 73 0.0 1.0 0.00 0.00 0.00 81 1012.1
20260506223032 62 0 0.0 1.0 0.00 0.00 0.00 82 1012.1
20260506221527 63 0 0.0 2.0 0.00 0.00 0.00 81 1012.1
20260506220036 63 86 0.0 1.0 0.00 0.00 0.00 81 1012.1
20260506214530 63 0 0.0 2.0 0.00 0.00 0.00 81 1012.4
20260506213028 63 93 0.0 2.0 0.00 0.00 0.00 81 1012.4
20260506211527 63 107 0.0 2.0 0.00 0.00 0.00 80 1012.5
20260506210030 63 0 0.0 1.0 0.00 0.00 0.00 81 1012.6
20260506204535 63 0 0.0 2.0 0.00 0.00 0.00 81 1012.3
20260506203028 64 101 0.0 3.0 0.00 0.00 0.00 81 1012.3
20260506201528 64 95 2.0 3.0 0.00 0.00 0.00 81 1012.0
20260506200030 64 82 1.0 5.0 0.00 0.00 0.00 81 1011.9
20260506194535 64 107 2.0 6.0 0.00 0.00 0.00 80 1011.6
20260506193030 64 94 3.0 6.0 0.00 0.00 0.00 80 1011.4
20260506191530 65 113 3.0 8.0 0.00 0.00 0.00 79 1011.2
20260506190027 65 104 5.0 10.0 0.00 0.00 0.00 78 1011.3
20260506184530 65 96 5.0 11.0 0.00 0.00 0.00 77 1011.1
20260506183030 66 130 6.0 12.0 0.00 0.00 0.00 76 1010.9
20260506181530 66 84 6.0 14.0 0.00 0.00 0.00 75 1011.1
20260506180030 67 75 5.0 11.0 0.00 0.00 0.00 73 1011.0
20260506174529 67 95 6.0 13.0 0.00 0.00 0.00 72 1010.8
20260506173030 68 86 6.0 13.0 0.00 0.00 0.00 71 1010.8
20260506171530 67 92 9.0 18.0 0.00 0.00 0.00 71 1010.8
20260506170029 68 117 8.0 15.0 0.00 0.00 0.00 71 1010.9
20260506164528 68 70 9.0 17.0 0.00 0.00 0.00 70 1010.7
20260506163030 69 70 9.0 17.0 0.00 0.00 0.00 67 1010.4
20260506161532 69 116 10.0 18.0 0.00 0.00 0.00 66 1010.5
20260506160038 69 115 9.0 15.0 0.00 0.00 0.00 66 1010.5
20260506154532 69 129 11.0 18.0 0.00 0.00 0.00 66 1010.3
20260506153029 69 113 9.0 17.0 0.00 0.00 0.00 66 1010.5
20260506151528 70 117 9.0 18.0 0.00 0.00 0.00 66 1010.5
20260506150029 70 134 10.0 18.0 0.00 0.00 0.00 65 1010.6
20260506144527 70 63 10.0 17.0 0.00 0.00 0.00 67 1010.7
20260506143033 70 153 12.0 18.0 0.00 0.00 0.00 67 1010.7
20260506141528 70 107 9.0 20.0 0.00 0.00 0.00 67 1010.8
20260506140030 70 99 11.0 20.0 0.00 0.00 0.00 68 1010.8
20260506134526 70 96 11.0 18.0 0.00 0.00 0.00 68 1011.0